[[{"header":{"parameterUnit":"m.s-1","parameterCategory":1,"la1":30.2991,"la2":30.254,"lo1":-89.0895,"lo2":-89.0444,"dy":0.0017,"dx":0.0017,"nx":28,"ny":28,"refTime":"2023-11-11T09:00:00:Z","depth":0,"parameterNumber":2,"parameterNumberName":"U-component_of_WINDS"},"data":[0,0,0,0,0,0,0,0,0,0,0,0,0,0,0,0,0,0,0,0,0,0,0,0,0,0,0,0,0,0,0,0,0,0,0,0,0,0,0,0,0,0,0,0,0,0,0,0,0,0,0,0,0,0,0,0,0,0,-1.4683,-1.4683,0,-1.4695,-1.4695,-1.4696,-1.4644,-1.4643,-1.4641,-1.464,-1.4652,-1.4654,-1.4656,0,0,0,0,0,0,0,0,0,0,0,0,0,-1.4616,-1.4617,-1.4683,-1.4683,-1.4684,-1.4695,-1.4695,-1.4696,-1.4644,-1.4643,-1.4641,-1.4639,-1.4652,-1.4654,-1.4656,0,0,0,0,0,0,0,0,0,0,0,0,0,-1.4638,-1.4618,-1.4683,-1.4659,-1.4657,-1.4695,-1.4695,-1.4696,-1.4645,-1.4643,-1.464,-1.4638,-1.4651,-1.4654,-1.4656,-1.4718,0,0,-1.4664,-1.4665,0,0,0,0,0,0,0,0,-1.4637,-1.4641,-1.4663,-1.4661,-1.4659,-1.4666,-1.4676,-1.4703,-1.4645,-1.465,-1.464,-1.4637,-1.4659,-1.4661,-1.4668,-1.4718,-1.4719,-1.4665,-1.4666,-1.4667,-1.4668,0,0,0,0,0,0,0,-1.4636,-1.464,-1.4688,-1.4663,-1.4661,-1.4648,-1.4649,-1.4681,-1.4667,-1.4649,-1.4645,-1.4648,-1.4657,-1.4666,-1.4668,-1.4719,-1.4664,-1.4667,-1.4668,-1.4669,-1.4821,-1.4824,0,0,0,0,0,0,-1.4637,-1.4639,-1.4688,-1.4688,-1.4642,-1.4651,-1.4652,-1.4666,-1.4666,-1.4664,-1.4649,-1.4645,-1.4662,-1.4665,-1.4668,-1.4741,-1.4667,-1.467,-1.4671,-1.4819,-1.4822,-1.4824,0,0,0,0,0,0,-1.4636,-1.4642,-1.4687,-1.4663,-1.4667,-1.4655,-1.4671,-1.4667,-1.4676,-1.4667,-1.4664,-1.4661,-1.466,-1.4664,-1.4706,-1.4741,-1.4671,-1.4673,-1.4816,-1.482,-1.4823,-1.4887,0,0,0,0,0,0,-1.4634,-1.4642,-1.4665,-1.4664,-1.4669,-1.4725,-1.4673,-1.4669,-1.468,-1.4675,-1.4676,-1.4674,-1.4659,-1.4702,-1.4709,-1.4743,-1.4675,-1.4813,-1.4818,-1.4822,-1.4882,-1.4892,-1.4901,0,0,0,0,0,-1.4632,-1.4682,-1.4667,-1.4673,-1.4698,-1.4727,-1.473,-1.4712,-1.4683,-1.4707,-1.4701,-1.4674,-1.4735,-1.4707,-1.4714,-1.4749,-1.4811,-1.4816,-1.4822,-1.4877,-1.489,-1.4901,0,0,0,0,0,0,-1.4688,-1.4682,-1.4664,-1.4716,-1.4722,-1.4718,-1.4747,-1.4726,-1.4741,-1.4735,-1.4711,-1.4712,-1.4758,-1.4757,-1.4726,-1.4809,-1.4768,-1.4775,-1.4808,-1.482,-1.483,-1.483,-1.4677,0,0,0,0,0,-1.4707,-1.4731,-1.4724,-1.477,-1.4774,-1.4761,-1.4772,-1.4757,-1.4764,-1.4766,-1.4763,-1.477,-1.4791,-1.4805,-1.4824,-1.4881,-1.4881,-1.4908,-1.4918,-1.4926,-1.4934,-1.4964,-1.4977,-1.4843,-1.4843,-1.4843,0,0,-1.4745,-1.4745,-1.4762,-1.4782,-1.4785,-1.4811,-1.4763,-1.4793,-1.4812,-1.4771,-1.481,-1.4808,-1.4814,-1.4864,-1.4886,-1.4865,-1.497,-1.4934,-1.494,-1.4943,-1.4971,-1.4984,-1.4996,-1.4846,-1.4846,-1.4845,0,0,-1.4829,-1.4831,-1.487,-1.4874,-1.488,-1.487,-1.488,-1.4879,-1.4876,-1.4915,-1.4885,-1.4907,-1.4943,-1.4949,-1.4957,-1.5043,-1.5019,-1.5049,-1.5102,-1.5132,-1.5143,-1.5152,-1.5184,-1.5195,-1.5056,-1.5056,-1.5056,0,-1.4876,-1.4914,-1.4892,-1.4924,-1.4934,-1.4898,-1.4937,-1.4943,-1.4954,-1.4962,-1.4938,-1.4983,-1.4985,-1.5036,-1.5057,-1.5064,-1.5074,-1.505,-1.5143,-1.5152,-1.516,-1.519,-1.5202,-1.506,-1.5059,-1.5059,-1.5059,0,-1.4973,-1.5,-1.503,-1.5043,-1.5056,-1.5092,-1.5075,-1.5091,-1.5075,-1.5068,-1.5108,-1.5108,-1.5127,-1.5137,-1.5122,-1.5187,-1.5174,-1.5147,-1.5105,-1.5177,-1.5205,-1.5216,-1.5065,-1.5064,-1.5063,-1.5062,0,0,-1.5094,-1.5093,-1.5105,-1.5111,-1.5114,-1.5135,-1.5168,-1.5186,-1.5201,-1.521,-1.5238,-1.527,-1.5245,-1.5254,-1.5238,-1.5264,-1.5334,-1.5234,-1.5234,-1.5254,-1.5407,-1.5428,-1.5442,-1.5317,-1.5319,-1.5321,-1.5407,0,-1.5177,-1.5235,-1.5217,-1.5276,-1.5301,-1.5266,-1.5295,-1.5301,-1.5295,-1.5315,-1.5308,-1.5331,-1.5296,-1.5301,-1.5326,-1.532,-1.5364,-1.5313,-1.5345,-1.5346,-1.5346,-1.5456,-1.5479,-1.556,-1.5417,-1.5419,-1.542,0,-1.5283,-1.5296,-1.5358,-1.5358,-1.5367,-1.5394,-1.5409,-1.5429,-1.5434,-1.5428,-1.5438,-1.5417,-1.545,-1.5407,-1.5453,-1.5419,-1.543,-1.543,-1.5432,-1.5436,-1.5389,-1.5465,-1.5585,-1.5598,-1.5437,-1.5436,-1.5435,0,-1.5367,-1.54,-1.5441,-1.5447,-1.5447,-1.5467,-1.5468,-1.5471,-1.5483,-1.5496,-1.5504,-1.5521,-1.553,-1.5544,-1.5528,-1.5498,-1.5577,-1.5532,-1.5573,-1.5574,-1.5593,-1.5592,-1.5719,-1.5598,-1.5597,-1.5597,-1.5597,0,-1.5463,-1.5502,-1.5479,-1.5505,-1.5549,-1.5526,-1.557,-1.5566,-1.557,-1.5594,-1.5564,-1.5588,-1.5565,-1.5586,-1.5574,-1.5615,-1.5619,-1.5615,-1.5612,-1.5619,-1.562,-1.5627,-1.5622,-1.56,-1.56,-1.5599,-1.5598,0,-1.5565,-1.5551,-1.5594,-1.5591,-1.5591,-1.5623,-1.562,-1.5644,-1.5635,-1.5667,-1.5673,-1.566,-1.5684,-1.5669,-1.5693,-1.5684,-1.5738,-1.5726,-1.5737,-1.5734,-1.5777,-1.5774,-1.5914,-1.5932,-1.5797,-1.5799,-1.58,0,-1.5628,-1.5658,-1.5658,-1.5672,-1.5675,-1.5699,-1.5711,-1.5689,-1.5704,-1.5712,-1.5735,-1.5756,-1.5772,-1.5812,-1.5805,-1.5824,-1.5813,-1.5861,-1.5815,-1.5822,-1.5815,-1.5815,-1.5818,-1.587,-1.5872,-1.5873,-1.5874,0,-1.5742,-1.5734,-1.5753,-1.577,-1.5785,-1.5797,-1.5807,-1.582,-1.5799,-1.5816,-1.584,-1.5853,-1.5877,-1.5899,-1.5915,-1.5916,-1.5892,-1.5888,-1.5899,-1.5908,-1.5913,-1.5913,-1.5763,-1.5886,-1.5885,-1.5884,-1.5883,-1.5883,-1.5828,-1.5853,-1.5857,-1.5879,-1.5884,-1.5894,-1.5916,-1.591,-1.593,-1.5949,-1.5935,-1.5964,-1.5968,-1.5987,-1.5991,-1.6013,-1.5994,-1.6009,-1.6013,-1.6018,-1.6025,-1.5908,-1.6016,-1.6015,-1.6015,-1.6015,-1.6014,0,-1.5942,-1.5943,-1.5963,-1.5978,-1.5995,-1.597,-1.598,-1.5996,-1.6022,-1.6028,-1.6045,-1.6073,-1.6094,-1.6088,-1.6107,-1.6127,-1.6116,-1.6132,-1.6132,-1.6133,-1.604,-1.603,-1.6141,-1.6141,-1.6141,-1.614,-1.614,-1.614,-1.6004,-1.6045,-1.6037,-1.6081,-1.6081,-1.611,-1.6117,-1.6126,-1.6131,-1.6164,-1.6181,-1.6177,-1.6179,-1.6197,-1.6216,-1.6213,-1.6223,-1.6243,-1.6237,-1.6151,-1.6139,-1.6127,-1.6117,-1.6245,-1.6245,-1.6328,-1.6329,-1.633]},{"header":{"parameterUnit":"m.s-1","parameterCategory":1,"la1":30.2991,"la2":30.254,"lo1":-89.0895,"lo2":-89.0444,"dy":0.0017,"dx":0.0017,"nx":28,"ny":28,"refTime":"2023-11-11T09:00:00:Z","depth":0,"parameterNumber":3,"parameterNumberName":"V-component_of_WINDS"},"data":[0,0,0,0,0,0,0,0,0,0,0,0,0,0,0,0,0,0,0,0,0,0,0,0,0,0,0,0,0,0,0,0,0,0,0,0,0,0,0,0,0,0,0,0,0,0,0,0,0,0,0,0,0,0,0,0,0,0,-3.695,-3.695,0,-3.6995,-3.6995,-3.6996,-3.6978,-3.6977,-3.6976,-3.6975,-3.7017,-3.7019,-3.7021,0,0,0,0,0,0,0,0,0,0,0,0,0,-3.6844,-3.6846,-3.695,-3.695,-3.6951,-3.6995,-3.6995,-3.6996,-3.6978,-3.6977,-3.6976,-3.6974,-3.7017,-3.7019,-3.7022,0,0,0,0,0,0,0,0,0,0,0,0,0,-3.689,-3.6847,-3.695,-3.6948,-3.6948,-3.6995,-3.6995,-3.6996,-3.6978,-3.6977,-3.6975,-3.6974,-3.7016,-3.7019,-3.7022,-3.7073,0,0,-3.7032,-3.7033,0,0,0,0,0,0,0,0,-3.6887,-3.6894,-3.6947,-3.6948,-3.6948,-3.6979,-3.6974,-3.7022,-3.6979,-3.6967,-3.6975,-3.6973,-3.7006,-3.701,-3.7021,-3.7075,-3.7076,-3.7032,-3.7034,-3.7035,-3.7036,0,0,0,0,0,0,0,-3.6884,-3.6892,-3.6968,-3.6948,-3.6949,-3.6943,-3.6948,-3.6983,-3.6994,-3.6968,-3.6966,-3.6972,-3.7006,-3.7018,-3.7022,-3.7077,-3.7032,-3.7034,-3.7036,-3.7038,-3.7173,-3.7175,0,0,0,0,0,0,-3.6881,-3.6889,-3.6966,-3.6969,-3.6913,-3.6946,-3.6951,-3.6971,-3.6994,-3.6996,-3.6974,-3.6971,-3.7014,-3.7018,-3.7024,-3.7084,-3.7035,-3.7038,-3.704,-3.7171,-3.7173,-3.7175,0,0,0,0,0,0,-3.6879,-3.6888,-3.6964,-3.6929,-3.6938,-3.695,-3.6972,-3.6973,-3.6985,-3.6998,-3.7,-3.6985,-3.7013,-3.7019,-3.7061,-3.7085,-3.7039,-3.7042,-3.7169,-3.7172,-3.7174,-3.7206,0,0,0,0,0,0,-3.6876,-3.6888,-3.6908,-3.6929,-3.694,-3.7002,-3.6973,-3.6975,-3.6991,-3.6989,-3.7009,-3.7011,-3.7012,-3.7056,-3.7064,-3.7089,-3.7045,-3.7167,-3.7171,-3.7174,-3.7202,-3.7209,-3.7215,0,0,0,0,0,-3.6872,-3.6915,-3.6909,-3.6919,-3.6966,-3.7004,-3.7009,-3.7011,-3.6993,-3.7013,-3.7021,-3.701,-3.7081,-3.706,-3.7069,-3.7095,-3.7166,-3.717,-3.7173,-3.72,-3.7208,-3.7214,0,0,0,0,0,0,-3.6895,-3.6917,-3.6912,-3.6962,-3.6981,-3.7001,-3.7026,-3.7019,-3.7042,-3.7039,-3.7038,-3.7043,-3.7085,-3.7094,-3.7071,-3.7145,-3.7121,-3.7126,-3.7138,-3.7145,-3.7151,-3.7148,-3.7047,0,0,0,0,0,-3.6906,-3.6936,-3.6953,-3.6996,-3.7006,-3.7014,-3.7031,-3.703,-3.7049,-3.7057,-3.7068,-3.7086,-3.7112,-3.7129,-3.7154,-3.7204,-3.7207,-3.7226,-3.7232,-3.7237,-3.7242,-3.7268,-3.7276,-3.7188,-3.7188,-3.7188,0,0,-3.6928,-3.6944,-3.6963,-3.7001,-3.7016,-3.7045,-3.7021,-3.7054,-3.7075,-3.7061,-3.7101,-3.711,-3.713,-3.7175,-3.7196,-3.7184,-3.7267,-3.7242,-3.7245,-3.7248,-3.7272,-3.7281,-3.7288,-3.7191,-3.719,-3.719,0,0,-3.6985,-3.7001,-3.7038,-3.7053,-3.7076,-3.7081,-3.709,-3.711,-3.7116,-3.7156,-3.7146,-3.7171,-3.7216,-3.7231,-3.7244,-3.7305,-3.7296,-3.7313,-3.7345,-3.737,-3.7377,-3.7383,-3.7404,-3.7412,-3.7318,-3.7318,-3.7318,0,-3.701,-3.7056,-3.7057,-3.7091,-3.7107,-3.7097,-3.7133,-3.7148,-3.7177,-3.7188,-3.7174,-3.7231,-3.7243,-3.7292,-3.7307,-3.7318,-3.7327,-3.7311,-3.7376,-3.7382,-3.7388,-3.7408,-3.7416,-3.732,-3.732,-3.732,-3.7319,0,-3.7085,-3.7117,-3.7144,-3.7174,-3.7193,-3.7228,-3.7233,-3.7252,-3.7249,-3.7256,-3.7296,-3.7311,-3.7338,-3.735,-3.7347,-3.7398,-3.7389,-3.7376,-3.7352,-3.7398,-3.7417,-3.7425,-3.7323,-3.7322,-3.7321,-3.7321,0,0,-3.7157,-3.7187,-3.7197,-3.721,-3.7235,-3.7258,-3.7292,-3.732,-3.7336,-3.7356,-3.7384,-3.7422,-3.741,-3.7425,-3.7423,-3.7446,-3.7492,-3.7429,-3.743,-3.744,-3.7548,-3.7558,-3.7567,-3.7486,-3.7488,-3.7489,-3.7546,0,-3.7215,-3.7277,-3.7278,-3.7333,-3.7362,-3.7352,-3.7381,-3.7398,-3.7405,-3.7429,-3.7435,-3.7462,-3.7444,-3.7453,-3.7475,-3.7482,-3.7514,-3.7478,-3.7511,-3.7512,-3.7506,-3.7577,-3.7588,-3.7642,-3.7554,-3.7555,-3.7556,0,-3.7292,-3.7316,-3.7374,-3.7394,-3.7406,-3.7432,-3.7457,-3.7481,-3.7499,-3.7502,-3.7519,-3.7514,-3.7547,-3.7522,-3.7566,-3.7542,-3.7555,-3.756,-3.7562,-3.7565,-3.7537,-3.7582,-3.7659,-3.7667,-3.7568,-3.7567,-3.7566,0,-3.7338,-3.7385,-3.7426,-3.7437,-3.7461,-3.748,-3.749,-3.7507,-3.7524,-3.7545,-3.7556,-3.758,-3.7594,-3.7612,-3.7613,-3.7595,-3.7658,-3.7633,-3.7661,-3.7661,-3.7674,-3.7674,-3.7755,-3.7683,-3.7683,-3.7683,-3.7683,0,-3.7403,-3.7439,-3.7447,-3.7472,-3.7511,-3.7512,-3.7551,-3.756,-3.7575,-3.76,-3.7592,-3.7616,-3.7617,-3.7641,-3.7642,-3.7678,-3.7684,-3.7686,-3.7686,-3.7687,-3.7687,-3.7696,-3.7692,-3.7685,-3.7685,-3.7684,-3.7684,0,-3.7462,-3.7469,-3.7513,-3.7532,-3.7537,-3.7565,-3.7581,-3.7604,-3.7609,-3.7642,-3.7649,-3.7657,-3.7685,-3.7688,-3.772,-3.772,-3.7764,-3.776,-3.7759,-3.7758,-3.7785,-3.7782,-3.7875,-3.7886,-3.7808,-3.7809,-3.7809,0,-3.7503,-3.7531,-3.7553,-3.757,-3.7582,-3.7609,-3.7626,-3.7628,-3.7645,-3.7668,-3.7688,-3.7715,-3.7737,-3.7781,-3.7789,-3.7813,-3.7809,-3.784,-3.7813,-3.7813,-3.7809,-3.7808,-3.781,-3.7845,-3.7846,-3.7847,-3.7847,0,-3.7575,-3.7577,-3.7602,-3.7629,-3.765,-3.767,-3.7689,-3.7703,-3.7707,-3.7727,-3.7756,-3.7773,-3.7805,-3.7832,-3.7855,-3.7864,-3.7856,-3.7856,-3.7863,-3.7865,-3.7862,-3.7863,-3.7773,-3.7854,-3.7853,-3.7853,-3.7852,-3.7852,-3.7626,-3.765,-3.7669,-3.7698,-3.7712,-3.773,-3.7753,-3.7761,-3.7786,-3.7814,-3.7812,-3.7844,-3.786,-3.7891,-3.7902,-3.7926,-3.7915,-3.7926,-3.7929,-3.7932,-3.7935,-3.7859,-3.793,-3.793,-3.7929,-3.7929,-3.7929,0,-3.7697,-3.7709,-3.7735,-3.7763,-3.7785,-3.7776,-3.7797,-3.7815,-3.7843,-3.786,-3.7882,-3.7914,-3.794,-3.795,-3.7974,-3.7991,-3.7988,-3.7997,-3.7996,-3.7998,-3.7943,-3.7933,-3.7999,-3.7999,-3.7999,-3.7999,-3.7999,-3.7999,-3.7737,-3.7777,-3.7781,-3.7827,-3.7838,-3.787,-3.7882,-3.7898,-3.7912,-3.7949,-3.797,-3.7977,-3.799,-3.8016,-3.8038,-3.804,-3.8049,-3.8061,-3.8061,-3.8009,-3.8002,-3.7995,-3.7987,-3.8063,-3.8063,-3.8114,-3.8115,-3.8115]}]]